Location: Niverville
(49.6028°N, 97.0419°W)
Time: 14:51:26
(UTC-05:00)

Amateur Radio Satellites - All Passes

Search period start: 30 September 2014 14:21
Search period end: 01 October 2014 14:21
Location: Niverville, 49.6028°N, 97.0419°W

Satellite Date Start Highest point End Downlink Frequencies (MHz)
Time Altitude Azimuth
Saudisat 1A 30 Sep 14:25:45 14:28:51 19° 114° (ESE) 14:31:59 436.775 MHz
TMSAT-1 30 Sep 14:47:43 14:52:40 42° 66° (ENE) 14:57:39 436.925 FM
Oscar 19 30 Sep 14:49:10 14:54:01 39° 263° (W) 14:58:53 437.125 CW, 437.150 USB
JAS-1B 30 Sep 14:49:42 14:57:09 69° 256° (WSW) 15:03:27 435.800 - 435.900 CW/SSB
MaSat-1 30 Sep 14:53:33 14:56:54 31° 48° (NE) 14:59:49 437.345 MHz
ITAMSAT 1 30 Sep 14:58:50 15:03:59 68° 257° (WSW) 15:09:12 435.822 SSB
Uribyol 2 30 Sep 14:59:56 15:05:04 63° 258° (WSW) 15:10:16 436.500 FM
Uosat F 30 Sep 15:28:25 15:32:03 21° 57° (ENE) 15:35:41 435.120 FM
Sapphire 30 Sep 15:30:38 15:32:51 12° 4° (N) 15:35:05 437.095 MHz 1200 baud AX-25 AFSK
Oscar 16 30 Sep 15:31:58 15:35:27 18° 271° (W) 15:38:57 437.025 USB, Beacon 2401.1428
AO-27 30 Sep 15:37:55 15:42:33 32° 265° (W) 15:47:13 436.795 MHz FM
AO-Echo 30 Sep 15:46:27 15:50:06 22° 268° (W) 15:53:47 ?
AO-7 30 Sep 15:51:25 15:59:26 57° 61° (ENE) 16:07:28 29.400 - 29.500 MHz
PCSat 30 Sep 15:56:40 15:59:17 13° 11° (NNE) 16:01:54 145.825 MHz
Gurwin Techsat 1B 30 Sep 15:58:28 16:03:29 43° 262° (W) 16:08:33 435.225 FM
Saudisat 1A 30 Sep 16:03:36 16:07:59 69° 313° (NW) 16:12:25 436.775 MHz
JAS-2 30 Sep 16:23:16 16:25:58 14° 49° (NE) 16:28:45 435.800 - 435.900 CW/SSB, 435.910 FM
TMSAT-1 30 Sep 16:27:58 16:32:42 33° 265° (W) 16:37:28 436.925 FM
MaSat-1 30 Sep 16:30:25 16:33:11 22° 252° (WSW) 16:35:40 437.345 MHz
ITAMSAT 1 30 Sep 16:44:20 16:44:30 10° 276° (W) 16:44:40 435.822 SSB
Hamsat 30 Sep 16:45:22 16:46:48 12° 56° (NE) 16:48:15 145.90 MHz
JAS-1B 30 Sep 16:45:47 16:48:45 13° 274° (W) 16:51:34 435.800 - 435.900 CW/SSB
KITSAT 1 30 Sep 16:48:55 16:54:43 22° 103° (ESE) 17:00:31 435.175 FM
Uosat F 30 Sep 17:05:23 17:10:21 70° 257° (WSW) 17:15:23 435.120 FM
OPAL 30 Sep 17:08:50 17:10:59 13° 88° (E) 17:13:07 ?
Sapphire 30 Sep 17:14:16 17:18:26 22° 30° (NNE) 17:22:35 437.095 MHz 1200 baud AX-25 AFSK
Oscar 10/S400 30 Sep 17:28:58 17:45:45 36° 154° (SSE) 18:23:54 145.825 - 145.975 CW/USB, Beacon 145.810 USB
PCSat 30 Sep 17:39:51 17:44:34 29° 37° (NE) 17:49:16 145.825 MHz
AO-7 30 Sep 17:44:47 17:52:30 42° 262° (W) 18:00:16 29.400 - 29.500 MHz
Saudisat 1A 30 Sep 17:45:10 17:48:21 19° 335° (NNW) 17:51:33 436.775 MHz
JAS-2 30 Sep 18:04:53 18:10:03 74° 72° (ENE) 18:15:36 435.800 - 435.900 CW/SSB, 435.910 FM
Hamsat 30 Sep 18:17:43 18:22:03 78° 75° (ENE) 18:26:22 145.90 MHz
KITSAT 1 30 Sep 18:40:55 18:49:00 84° 125° (SE) 18:57:08 435.175 FM
OPAL 30 Sep 18:45:32 18:50:42 82° 107° (ESE) 18:55:46 ?
HO-68 30 Sep 18:56:54 19:00:35 15° 41° (NE) 19:04:15 435.675 MHz FM
Sapphire 30 Sep 18:57:20 19:02:48 74° 52° (NE) 19:08:13 437.095 MHz 1200 baud AX-25 AFSK
SO-50 30 Sep 19:15:51 19:17:58 13° 109° (ESE) 19:20:06 436.795 FM
SO-67 30 Sep 19:17:00 19:20:19 46° 72° (ENE) 19:23:39 435.3500 MHz FM
PCSat 30 Sep 19:23:04 19:28:30 72° 238° (WSW) 19:33:53 145.825 MHz
Saudisat 1A 30 Sep 19:28:01 19:29:37 12° 359° (N) 19:31:13 436.775 MHz
STRAND 1 30 Sep 19:46:21 19:51:00 33° 96° (E) 19:55:38 ?
JAS-2 30 Sep 19:52:35 19:55:58 17° 274° (W) 19:59:29 435.800 - 435.900 CW/SSB, 435.910 FM
Hamsat 30 Sep 19:56:34 19:58:33 13° 273° (W) 20:00:32 145.90 MHz
OPAL 30 Sep 20:25:27 20:28:59 19° 307° (NW) 20:32:29 ?
Oscar 11 30 Sep 20:36:46 20:38:21 12° 55° (NE) 20:39:57 145.825 FM, Beacon 2401.500 USB
KITSAT 1 30 Sep 20:37:53 20:45:17 37° 329° (NNW) 20:52:43 435.175 FM
HO-68 30 Sep 20:39:54 20:46:45 52° 63° (ENE) 20:53:39 435.675 MHz FM
Sapphire 30 Sep 20:41:38 20:45:41 22° 252° (WSW) 20:49:43 437.095 MHz 1200 baud AX-25 AFSK
SO-67 30 Sep 20:51:42 20:53:36 14° 270° (W) 20:55:31 435.3500 MHz FM
SO-50 30 Sep 20:53:14 20:57:46 84° 128° (SE) 21:02:26 436.795 FM
FUNcube-1 30 Sep 21:01:11 21:01:34 10° 52° (NE) 21:01:57 145.950 - 145.970 MHz USB
UKube-1 30 Sep 21:03:28 21:07:02 25° 63° (ENE) 21:10:37 145.840 MHz, 145.915 MHz
Saudisat 1A 30 Sep 21:07:54 21:10:56 18° 23° (NNE) 21:13:58 436.775 MHz
PCSat 30 Sep 21:08:44 21:10:57 13° 258° (WSW) 21:13:11 145.825 MHz
UOSAT-12 30 Sep 21:24:28 21:28:00 22° 114° (ESE) 21:31:35 437.025 FM, 437.400 FM
STRAND 1 30 Sep 21:25:29 21:30:16 40° 295° (WNW) 21:35:03 ?
ZACube-1 30 Sep 21:42:34 21:46:08 23° 62° (ENE) 21:49:44 437.345 MHz
Oscar 11 30 Sep 22:09:26 22:13:48 78° 74° (ENE) 22:18:11 145.825 FM, Beacon 2401.500 USB
HO-68 30 Sep 22:28:05 22:34:40 39° 263° (W) 22:41:19 435.675 MHz FM
FUNcube-1 30 Sep 22:32:31 22:37:00 60° 72° (ENE) 22:41:35 145.950 - 145.970 MHz USB
SO-50 30 Sep 22:35:08 22:38:54 24° 330° (NNW) 22:42:46 436.795 FM
KITSAT 1 30 Sep 22:36:51 22:43:15 25° 358° (N) 22:49:38 435.175 FM
UKube-1 30 Sep 22:38:57 22:43:03 41° 261° (W) 22:47:12 145.840 MHz, 145.915 MHz
Saudisat 1A 30 Sep 22:47:00 22:51:24 59° 46° (NE) 22:55:46 436.775 MHz
UOSAT-12 30 Sep 23:03:05 23:07:44 66° 313° (NW) 23:12:28 437.025 FM, 437.400 FM
ZACube-1 30 Sep 23:17:45 23:22:13 53° 260° (W) 23:26:46 437.345 MHz
AO-40 30 Sep 23:21:00 01:09:15 19° 215° (SW) 04:06:28 Beacon 2401.320
ISS 30 Sep 23:40:46 23:43:50 35° 148° (SSE) 23:46:55 145.800 FM
Oscar 11 30 Sep 23:48:29 23:50:33 13° 273° (W) 23:52:38 145.825 FM, Beacon 2401.500 USB
FUNcube-1 01 Oct 00:10:35 00:13:47 19° 270° (W) 00:17:03 145.950 - 145.970 MHz USB
SO-50 01 Oct 00:18:48 00:21:06 13° 355° (N) 00:23:26 436.795 FM
Saudisat 1A 01 Oct 00:27:11 00:30:39 23° 245° (WSW) 00:34:05 436.775 MHz
KITSAT 1 01 Oct 00:34:03 00:41:19 34° 27° (NNE) 00:48:33 435.175 FM
UOSAT-12 01 Oct 00:45:14 00:48:45 20° 336° (NNW) 00:52:17 437.025 FM, 437.400 FM
ISS 01 Oct 01:17:05 01:20:25 73° 348° (NNW) 01:23:45 145.800 FM
Oscar 16 01 Oct 01:58:36 02:02:14 19° 89° (E) 02:05:49 437.025 USB, Beacon 2401.1428
SO-50 01 Oct 02:00:21 02:03:31 17° 20° (NNE) 02:06:44 436.795 FM
AO-Echo 01 Oct 02:10:40 02:12:42 12° 86° (E) 02:14:46 ?
RS-15 01 Oct 02:15:12 02:24:31 34° 107° (ESE) 02:33:45 29.354 - 29.394 USB, Beacon 29.352 USB
UOSAT-12 01 Oct 02:28:24 02:30:40 13° 0° (N) 02:32:57 437.025 FM, 437.400 FM
KITSAT 1 01 Oct 02:29:41 02:37:50 86° 53° (NE) 02:45:55 435.175 FM
JAS-1B 01 Oct 02:29:47 02:34:08 22° 91° (E) 02:38:38 435.800 - 435.900 CW/SSB
ISS 01 Oct 02:54:00 02:57:19 62° 7° (N) 03:00:37 145.800 FM
Oscar 19 01 Oct 02:55:52 03:00:57 54° 100° (E) 03:05:57 437.125 CW, 437.150 USB
TMSAT-1 01 Oct 03:01:15 03:02:56 11° 84° (E) 03:04:37 436.925 FM
ITAMSAT 1 01 Oct 03:07:30 03:12:10 32° 95° (E) 03:16:48 435.822 SSB
Uribyol 2 01 Oct 03:08:22 03:13:08 34° 96° (E) 03:17:51 436.500 FM
Oscar 16 01 Oct 03:36:57 03:42:07 70° 289° (WNW) 03:47:13 437.025 USB, Beacon 2401.1428
SO-50 01 Oct 03:40:32 03:45:11 48° 42° (NE) 03:49:54 436.795 FM
AO-27 01 Oct 03:45:38 03:50:52 66° 103° (ESE) 03:56:04 436.795 MHz FM
AO-Echo 01 Oct 03:47:13 03:52:14 81° 104° (ESE) 03:57:22 ?
AO-7 01 Oct 03:51:24 03:53:40 11° 80° (E) 03:55:56 29.400 - 29.500 MHz
UOSAT-12 01 Oct 04:09:02 04:12:35 20° 25° (NNE) 04:16:07 437.025 FM, 437.400 FM
Gurwin Techsat 1B 01 Oct 04:09:47 04:15:02 56° 101° (E) 04:20:15 435.225 FM
JAS-1B 01 Oct 04:19:46 04:25:22 63° 291° (WNW) 04:31:14 435.800 - 435.900 CW/SSB
RS-15 01 Oct 04:24:45 04:35:46 82° 311° (NW) 04:46:49 29.354 - 29.394 USB, Beacon 29.352 USB
KITSAT 1 01 Oct 04:25:59 04:32:20 26° 254° (WSW) 04:38:41 435.175 FM
OPAL 01 Oct 04:26:27 04:31:16 39° 62° (ENE) 04:36:05 ?
ISS 01 Oct 04:30:46 04:34:01 53° 207° (SSW) 04:37:16 145.800 FM
Oscar 19 01 Oct 04:35:47 04:39:59 26° 300° (WNW) 04:44:10 437.125 CW, 437.150 USB
TMSAT-1 01 Oct 04:38:29 04:43:49 73° 103° (ESE) 04:49:07 436.925 FM
ITAMSAT 1 01 Oct 04:46:51 04:51:47 43° 294° (WNW) 04:56:42 435.822 SSB
Uribyol 2 01 Oct 04:47:48 04:52:40 40° 295° (WNW) 04:57:31 436.500 FM
Uosat F 01 Oct 05:09:03 05:13:16 26° 94° (E) 05:17:28 435.120 FM
Oscar 16 01 Oct 05:18:10 05:20:34 13° 308° (NW) 05:22:59 437.025 USB, Beacon 2401.1428
SO-50 01 Oct 05:21:21 05:25:39 33° 242° (WSW) 05:30:00 436.795 FM
AO-27 01 Oct 05:25:56 05:29:57 23° 302° (WNW) 05:33:58 436.795 MHz FM
AO-Echo 01 Oct 05:27:10 05:30:27 18° 303° (WNW) 05:33:47 ?
STRAND 1 01 Oct 05:30:40 05:33:13 14° 52° (NE) 05:35:47 ?
AO-7 01 Oct 05:40:20 05:48:28 55° 102° (ESE) 05:56:32 29.400 - 29.500 MHz
UOSAT-12 01 Oct 05:48:51 05:53:36 67° 47° (NE) 05:58:16 437.025 FM, 437.400 FM
Gurwin Techsat 1B 01 Oct 05:50:20 05:54:42 27° 300° (WNW) 05:59:03 435.225 FM
Hamsat 01 Oct 06:02:05 06:02:36 10° 85° (E) 06:03:07 145.90 MHz
OPAL 01 Oct 06:05:23 06:10:10 36° 261° (W) 06:14:59 ?
ISS 01 Oct 06:08:54 06:10:07 12° 225° (SW) 06:11:21 145.800 FM
JAS-1B 01 Oct 06:12:49 06:14:59 12° 313° (NW) 06:17:11 435.800 - 435.900 CW/SSB
MaSat-1 01 Oct 06:16:28 06:21:02 43° 114° (ESE) 06:25:21 437.345 MHz
TMSAT-1 01 Oct 06:19:19 06:23:13 21° 303° (WNW) 06:27:07 436.925 FM
RS-15 01 Oct 06:39:39 06:49:50 41° 341° (NNW) 07:00:09 29.354 - 29.394 USB, Beacon 29.352 USB
Uosat F 01 Oct 06:47:27 06:52:18 49° 292° (WNW) 06:57:08 435.120 FM
JAS-2 01 Oct 06:52:19 06:58:39 50° 99° (E) 07:05:43 435.800 - 435.900 CW/SSB, 435.910 FM
STRAND 1 01 Oct 07:06:30 07:11:34 74° 72° (ENE) 07:16:42 ?
UOSAT-12 01 Oct 07:29:45 07:33:20 22° 246° (WSW) 07:36:53 437.025 FM, 437.400 FM
AO-7 01 Oct 07:33:26 07:41:08 45° 304° (WNW) 07:48:50 29.400 - 29.500 MHz
Hamsat 01 Oct 07:35:00 07:39:15 89° 104° (ESE) 07:43:26 145.90 MHz
MaSat-1 01 Oct 07:53:18 07:57:37 33° 311° (NW) 08:01:40 437.345 MHz
SO-67 01 Oct 08:09:15 08:12:20 30° 96° (E) 08:15:25 435.3500 MHz FM
JAS-2 01 Oct 08:37:43 08:43:38 40° 296° (WNW) 08:50:13 435.800 - 435.900 CW/SSB, 435.910 FM
STRAND 1 01 Oct 08:47:58 08:51:20 18° 271° (W) 08:54:45 ?
RS-15 01 Oct 08:55:25 09:05:33 40° 15° (NNE) 09:15:55 29.354 - 29.394 USB, Beacon 29.352 USB
Hamsat 01 Oct 09:12:42 09:14:34 13° 303° (WNW) 09:16:25 145.90 MHz
AO-7 01 Oct 09:27:40 09:31:54 15° 328° (NNW) 09:36:08 29.400 - 29.500 MHz
SO-67 01 Oct 09:42:32 09:45:14 22° 294° (WNW) 09:47:55 435.3500 MHz FM
Sapphire 01 Oct 09:44:20 09:48:46 26° 110° (ESE) 09:53:12 437.095 MHz 1200 baud AX-25 AFSK
HO-68 01 Oct 09:50:15 09:56:44 35° 95° (E) 10:03:11 435.675 MHz FM
Oscar 11 01 Oct 09:55:21 09:56:20 11° 86° (E) 09:57:18 145.825 FM, Beacon 2401.500 USB
PCSat 01 Oct 10:09:03 10:14:08 43° 116° (ESE) 10:19:15 145.825 MHz
UKube-1 01 Oct 10:22:57 10:26:31 24° 94° (E) 10:30:05 145.840 MHz, 145.915 MHz
ZACube-1 01 Oct 11:03:10 11:06:54 24° 92° (E) 11:10:33 437.345 MHz
RS-15 01 Oct 11:08:51 11:19:57 75° 45° (NE) 11:31:26 29.354 - 29.394 USB, Beacon 29.352 USB
Sapphire 01 Oct 11:26:27 11:31:49 62° 310° (NW) 11:37:14 437.095 MHz 1200 baud AX-25 AFSK
Oscar 11 01 Oct 11:28:50 11:33:12 88° 103° (ESE) 11:37:31 145.825 FM, Beacon 2401.500 USB
HO-68 01 Oct 11:37:46 11:44:47 58° 295° (WNW) 11:51:47 435.675 MHz FM
PCSat 01 Oct 11:52:29 11:57:36 41° 316° (NW) 12:02:46 145.825 MHz
FUNcube-1 01 Oct 11:53:40 11:58:16 71° 102° (ESE) 12:02:44 145.950 - 145.970 MHz USB
UKube-1 01 Oct 11:58:46 12:02:54 42° 292° (WNW) 12:07:00 145.840 MHz, 145.915 MHz
ZACube-1 01 Oct 12:39:08 12:43:31 45° 291° (WNW) 12:47:47 437.345 MHz
Oscar 19 01 Oct 12:39:37 12:43:27 21° 58° (ENE) 12:47:17 437.125 CW, 437.150 USB
ITAMSAT 1 01 Oct 12:53:39 12:56:15 14° 52° (NE) 12:58:52 435.822 SSB
Uribyol 2 01 Oct 12:54:09 12:57:00 15° 53° (NE) 12:59:51 436.500 FM
Oscar 11 01 Oct 13:06:37 13:08:45 14° 303° (WNW) 13:10:54 145.825 FM, Beacon 2401.500 USB
AO-7 01 Oct 13:08:00 13:10:03 11° 24° (NNE) 13:12:05 29.400 - 29.500 MHz
Sapphire 01 Oct 13:12:27 13:16:21 20° 333° (NNW) 13:20:16 437.095 MHz 1200 baud AX-25 AFSK
JAS-1B 01 Oct 13:19:21 13:25:40 35° 62° (ENE) 13:31:11 435.800 - 435.900 CW/SSB
Oscar 16 01 Oct 13:19:24 13:24:16 42° 66° (ENE) 13:29:10 437.025 USB, Beacon 2401.1428
RS-15 01 Oct 13:21:41 13:31:39 41° 250° (WSW) 13:41:59 29.354 - 29.394 USB, Beacon 29.352 USB
HO-68 01 Oct 13:26:58 13:31:06 17° 317° (NW) 13:35:14 435.675 MHz FM
AO-Echo 01 Oct 13:27:23 13:31:09 25° 61° (ENE) 13:34:58 ?
AO-27 01 Oct 13:30:08 13:34:21 26° 60° (ENE) 13:38:36 436.795 MHz FM
FUNcube-1 01 Oct 13:31:06 13:34:07 18° 301° (WNW) 13:37:07 145.950 - 145.970 MHz USB
PCSat 01 Oct 13:39:15 13:42:31 16° 341° (NNW) 13:45:47 145.825 MHz
Gurwin Techsat 1B 01 Oct 13:57:05 14:01:11 23° 59° (ENE) 14:05:19 435.225 FM
